Flag for Germany Weather past 2 weeks in Düren, North Rhine-Westphalia, Germany

Now
63 °F

Partly sunny.


Feels Like: 63 °F
Forecast: 60 / 76 °F
Wind: 3 mph from Southeast

Location: Noervenich

Current Time: Sep 18, 2014 at 11:44:59 AM

Latest Report: Sep 18, 2014 at 10:20 AM


Visibility: N/A

Pressure: 29.86 "Hg

Humidity: 94%

Dew point: 61 °F

Location of DürenLocation

Historic Weather in Düren — Graph

°F

Düren temperature yesterday

Maximum temperature yesterday: 75 °F (at 3:20 PM)
Minimum temperature yesterday: 54 °F (at 4:20 AM)
Average temperature yesterday: 64 °F

Past Weeks' High & Low Weather Summary

 TemperatureHumidityPressure
High75 °F (Sep 5, 3:20 PM)100% (Sep 6, 3:20 AM)30.24 "Hg (Sep 6, 3:20 AM)
Low46 °F (Sep 12, 6:20 AM)50% (Sep 17, 3:20 PM)29.83 "Hg (Sep 18, 4:20 AM)
Average61 °F80%30.05 "Hg
* Reported Sep 3 10:20 AM — Sep 18 10:20 AM, Düren, Weather by CustomWeather, © 2014

Note: Actual official high and low records may vary slightly from our data, if they occured in-between our weather recording intervals... More about our weather records

Advertising

Düren weather history for previous 24 hours

 ConditionsComfort  
Time TempWeatherWind HumidityBarometerVisibility
10:20 AM
Sep 18
63 °FPartly sunny.3 mph94%29.86 "HgN/A
9:20 AM61 °FBroken clouds.3 mph94%29.86 "HgN/A
8:20 AM59 °FLight rain. Broken clouds.3 mph94%29.83 "HgN/A
7:20 AM59 °FSprinkles. Partly cloudy.2 mph94%29.86 "HgN/A
6:20 AM59 °FPartly cloudy.1 mph94%29.83 "HgN/A
5:20 AM59 °FPartly cloudy.1 mph94%29.83 "HgN/A
4:20 AM59 °FPassing clouds.2 mph94%29.83 "HgN/A
3:20 AM61 °FPartly cloudy.1 mph88%29.86 "HgN/A
2:20 AM61 °FPassing clouds.2 mph88%29.86 "HgN/A
1:20 AM61 °FPassing clouds.2 mph88%29.86 "HgN/A
12:20 AM61 °FPassing clouds.2 mph88%29.86 "HgN/A
11:20 PM
Sep 17
63 °FPassing clouds.2 mph88%29.86 "HgN/A
10:20 PM64 °FPassing clouds.2 mph83%29.86 "HgN/A
9:20 PM64 °FPassing clouds.1 mph83%29.86 "HgN/A
8:20 PM68 °FPassing clouds.1 mph73%29.86 "HgN/A
7:20 PM72 °FPassing clouds.3 mph65%29.86 "HgN/A
6:20 PM75 °FPassing clouds.5 mph54%29.86 "HgN/A
5:20 PM75 °FPassing clouds.3 mph50%29.86 "HgN/A
4:20 PM75 °FPassing clouds.3 mph50%29.86 "HgN/A
3:20 PM75 °FPassing clouds.2 mph50%29.86 "HgN/A
2:20 PM73 °FPassing clouds.3 mph61%29.89 "HgN/A
1:20 PM73 °FPassing clouds.6 mph61%29.89 "HgN/A
12:20 PM72 °FPassing clouds.5 mph65%29.89 "HgN/A
11:20 AM68 °FPassing clouds.5 mph73%29.92 "HgN/A
Weather by CustomWeather, © 2014

See weather overviewHow to use our weather pages